[[{"header":{"parameterUnit":"m.s-1","parameterCategory":1,"la1":30.2991,"la2":30.254,"lo1":-89.0895,"lo2":-89.0444,"dx":0.0017,"dy":0.0017,"nx":28,"ny":28,"refTime":"2022-11-18T15:00:00:Z","depth":0,"parameterNumber":2,"parameterNumberName":"U-component_of_WINDS"},"data":[0,0,0,0,0,0,0,0,0,0,0,0,0,0,0,0,0,0,0,0,0,0,0,0,0,0,0,0,0,0,0,0,0,0,0,0,0,0,0,0,0,0,0,0,0,0,0,0,0,0,0,0,0,0,0,0,0,0,-2.7854,-2.7854,0,-2.7905,-2.7906,-2.7906,-2.7769,-2.7765,-2.776,-2.7756,-2.781,-2.7815,-2.7821,0,0,0,0,0,0,0,0,0,0,0,0,0,-2.7637,-2.7642,-2.7854,-2.7854,-2.7855,-2.7905,-2.7906,-2.7907,-2.777,-2.7765,-2.7759,-2.7754,-2.7808,-2.7815,-2.7821,0,0,0,0,0,0,0,0,0,0,0,0,0,-2.7714,-2.7643,-2.7854,-2.7793,-2.7788,-2.7905,-2.7906,-2.7907,-2.7771,-2.7764,-2.7758,-2.7752,-2.7806,-2.7814,-2.7822,-2.8001,0,0,-2.7847,-2.7851,0,0,0,0,0,0,0,0,-2.771,-2.7722,-2.7801,-2.7797,-2.7792,-2.7824,-2.7849,-2.7938,-2.7773,-2.7777,-2.7756,-2.7749,-2.782,-2.7827,-2.785,-2.8003,-2.8006,-2.7848,-2.7853,-2.7856,-2.7858,0,0,0,0,0,0,0,-2.7705,-2.7719,-2.7874,-2.7802,-2.7797,-2.7763,-2.7767,-2.7865,-2.7834,-2.7776,-2.7767,-2.7775,-2.7816,-2.7843,-2.7851,-2.8007,-2.7848,-2.7855,-2.786,-2.7863,-2.8311,-2.8317,0,0,0,0,0,0,-2.7707,-2.7716,-2.7872,-2.7876,-2.7734,-2.7772,-2.7776,-2.782,-2.7833,-2.7828,-2.778,-2.7768,-2.7832,-2.7841,-2.7852,-2.8065,-2.7856,-2.7864,-2.7868,-2.8304,-2.8312,-2.832,0,0,0,0,0,0,-2.7703,-2.7723,-2.787,-2.7793,-2.7809,-2.7783,-2.7833,-2.7825,-2.7851,-2.7835,-2.7829,-2.7813,-2.7828,-2.7841,-2.7965,-2.8065,-2.7867,-2.7875,-2.8295,-2.8306,-2.8316,-2.8491,0,0,0,0,0,0,-2.7697,-2.7722,-2.779,-2.7796,-2.7814,-2.7984,-2.7839,-2.783,-2.7866,-2.785,-2.7865,-2.7861,-2.7823,-2.7954,-2.7974,-2.8072,-2.7881,-2.8286,-2.83,-2.8313,-2.8476,-2.8506,-2.8531,0,0,0,0,0,-2.769,-2.7836,-2.7794,-2.7814,-2.7898,-2.7989,-2.8,-2.7954,-2.7874,-2.7942,-2.7932,-2.7861,-2.8049,-2.7968,-2.7989,-2.8092,-2.828,-2.8296,-2.8312,-2.8464,-2.85,-2.8531,0,0,0,0,0,0,-2.7843,-2.7836,-2.7789,-2.7941,-2.7967,-2.7966,-2.8051,-2.7993,-2.8042,-2.8026,-2.7966,-2.7971,-2.8107,-2.811,-2.802,-2.8266,-2.8151,-2.8172,-2.826,-2.8294,-2.8321,-2.832,-2.7888,0,0,0,0,0,-2.7895,-2.7969,-2.7958,-2.8094,-2.8109,-2.8078,-2.8116,-2.8078,-2.8102,-2.8113,-2.8111,-2.8138,-2.8203,-2.8248,-2.8307,-2.8474,-2.8477,-2.8555,-2.8582,-2.8605,-2.8625,-2.8716,-2.8752,-2.8371,-2.8371,-2.8371,0,0,-2.8002,-2.8007,-2.8058,-2.8125,-2.8141,-2.822,-2.8088,-2.8177,-2.8236,-2.8126,-2.8245,-2.8245,-2.827,-2.8418,-2.8483,-2.8425,-2.873,-2.8625,-2.8644,-2.8651,-2.8736,-2.8772,-2.8804,-2.8382,-2.838,-2.8379,0,0,-2.8239,-2.8249,-2.8365,-2.8383,-2.8408,-2.8386,-2.8414,-2.8421,-2.8417,-2.8535,-2.8455,-2.8523,-2.8636,-2.8659,-2.8685,-2.8929,-2.8867,-2.895,-2.9097,-2.9186,-2.9216,-2.9242,-2.9334,-2.9366,-2.8969,-2.8969,-2.897,0,-2.837,-2.8487,-2.8431,-2.8527,-2.856,-2.8462,-2.858,-2.8599,-2.8643,-2.8668,-2.8602,-2.8743,-2.8753,-2.8906,-2.8966,-2.8989,-2.902,-2.895,-2.9216,-2.9242,-2.9266,-2.9352,-2.9386,-2.898,-2.8978,-2.8977,-2.8976,0,-2.8648,-2.873,-2.882,-2.8865,-2.8907,-2.9013,-2.8974,-2.9023,-2.8981,-2.8966,-2.9088,-2.9096,-2.9156,-2.9188,-2.9147,-2.9336,-2.93,-2.9226,-2.911,-2.9313,-2.9394,-2.9426,-2.8994,-2.8991,-2.8988,-2.8985,0,0,-2.8987,-2.8999,-2.9034,-2.9054,-2.9073,-2.9136,-2.9236,-2.9295,-2.934,-2.9372,-2.9457,-2.9555,-2.9487,-2.9517,-2.9477,-2.9555,-2.9752,-2.9471,-2.9471,-2.9527,-2.9964,-3.0024,-3.0063,-2.9708,-2.9714,-2.9719,-2.9963,0,-2.9224,-2.9399,-2.9352,-2.9527,-2.9603,-2.9511,-2.9599,-2.9621,-2.9609,-2.9672,-2.9658,-2.973,-2.9633,-2.9651,-2.9723,-2.9713,-2.984,-2.9694,-2.979,-2.9794,-2.9792,-3.0104,-3.0167,-3.0397,-2.9994,-2.9999,-3.0003,0,-2.9526,-2.9571,-2.9754,-2.9762,-2.9792,-2.9872,-2.9923,-2.9983,-3.0006,-2.9992,-3.0026,-2.997,-3.007,-2.9951,-3.0089,-2.9991,-3.0026,-3.0027,-3.0035,-3.0046,-2.9915,-3.0128,-3.0469,-3.0506,-3.0051,-3.0047,-3.0044,0,-2.9761,-2.9866,-2.9989,-3.0008,-3.002,-3.0079,-3.0087,-3.0103,-3.0142,-3.0185,-3.021,-3.0264,-3.0295,-3.0339,-3.03,-3.0215,-3.0446,-3.0322,-3.044,-3.0441,-3.0497,-3.0495,-3.0853,-3.0512,-3.0511,-3.051,-3.051,0,-3.0034,-3.015,-3.0095,-3.0172,-3.03,-3.0243,-3.0372,-3.0368,-3.0384,-3.0459,-3.0379,-3.0452,-3.0393,-3.046,-3.0429,-3.0551,-3.0564,-3.0557,-3.0549,-3.0568,-3.0569,-3.0594,-3.0579,-3.0519,-3.0517,-3.0516,-3.0514,0,-3.032,-3.0287,-3.0417,-3.0416,-3.0419,-3.0514,-3.0514,-3.0585,-3.0566,-3.0662,-3.0681,-3.0652,-3.0727,-3.0691,-3.0768,-3.0747,-3.0906,-3.0873,-3.0899,-3.0893,-3.1014,-3.1005,-3.1405,-3.1456,-3.1077,-3.1081,-3.1084,0,-3.0499,-3.0587,-3.0596,-3.0641,-3.0654,-3.0726,-3.0765,-3.0712,-3.0756,-3.0789,-3.0857,-3.0924,-3.0976,-3.11,-3.1086,-3.1145,-3.1117,-3.1252,-3.1125,-3.1142,-3.1124,-3.1122,-3.1132,-3.128,-3.1284,-3.1288,-3.1291,0,-3.0822,-3.0802,-3.0861,-3.0916,-3.0965,-3.1005,-3.1038,-3.1079,-3.1026,-3.108,-3.1156,-3.1196,-3.1275,-3.1344,-3.1396,-3.1403,-3.1341,-3.133,-3.1361,-3.1384,-3.1398,-3.1397,-3.0975,-3.1323,-3.1319,-3.1317,-3.1315,-3.1314,-3.1064,-3.1138,-3.1157,-3.1226,-3.1245,-3.1278,-3.1346,-3.1336,-3.1398,-3.1459,-3.1422,-3.1512,-3.1532,-3.1595,-3.161,-3.168,-3.1626,-3.167,-3.1682,-3.1696,-3.1714,-3.1382,-3.1688,-3.1687,-3.1686,-3.1686,-3.1685,0,-3.1387,-3.1394,-3.1458,-3.1508,-3.1562,-3.1495,-3.1528,-3.1579,-3.1659,-3.1683,-3.1736,-3.1823,-3.189,-3.188,-3.1941,-3.1999,-3.1972,-3.2017,-3.2015,-3.2019,-3.1756,-3.1726,-3.2038,-3.2038,-3.2038,-3.2038,-3.2038,-3.2038,-3.1562,-3.1686,-3.1668,-3.18,-3.1805,-3.1893,-3.1919,-3.1949,-3.1968,-3.207,-3.2125,-3.2118,-3.2129,-3.219,-3.2248,-3.2243,-3.2272,-3.2329,-3.2315,-3.2072,-3.2037,-3.2004,-3.1975,-3.2335,-3.2335,-3.2572,-3.2574,-3.2576]},{"header":{"parameterUnit":"m.s-1","parameterCategory":1,"la1":30.2991,"la2":30.254,"lo1":-89.0895,"lo2":-89.0444,"dx":0.0017,"dy":0.0017,"nx":28,"ny":28,"refTime":"2022-11-18T15:00:00:Z","depth":0,"parameterNumber":3,"parameterNumberName":"V-component_of_WINDS"},"data":[0,0,0,0,0,0,0,0,0,0,0,0,0,0,0,0,0,0,0,0,0,0,0,0,0,0,0,0,0,0,0,0,0,0,0,0,0,0,0,0,0,0,0,0,0,0,0,0,0,0,0,0,0,0,0,0,0,0,-5.138,-5.1379,0,-5.1345,-5.1344,-5.1344,-5.1216,-5.1213,-5.121,-5.1208,-5.1174,-5.1176,-5.1177,0,0,0,0,0,0,0,0,0,0,0,0,0,-5.1337,-5.1338,-5.138,-5.1379,-5.1379,-5.1345,-5.1344,-5.1344,-5.1217,-5.1213,-5.121,-5.1206,-5.1173,-5.1175,-5.1178,0,0,0,0,0,0,0,0,0,0,0,0,0,-5.1334,-5.1339,-5.138,-5.1311,-5.1305,-5.1345,-5.1344,-5.1344,-5.1217,-5.1213,-5.1209,-5.1205,-5.1173,-5.1175,-5.1178,-5.1282,0,0,-5.1186,-5.1187,0,0,0,0,0,0,0,0,-5.1335,-5.1336,-5.1322,-5.1316,-5.1309,-5.128,-5.1316,-5.1323,-5.1219,-5.1251,-5.1208,-5.1203,-5.1213,-5.1212,-5.1215,-5.128,-5.1279,-5.1186,-5.1188,-5.1189,-5.119,0,0,0,0,0,0,0,-5.1335,-5.1337,-5.1366,-5.1322,-5.1314,-5.1282,-5.1277,-5.1317,-5.1257,-5.1248,-5.1238,-5.1236,-5.1209,-5.1213,-5.1213,-5.1278,-5.1186,-5.1189,-5.119,-5.1191,-5.1425,-5.1429,0,0,0,0,0,0,-5.1345,-5.1338,-5.1367,-5.1365,-5.1311,-5.1287,-5.1281,-5.1294,-5.1256,-5.1246,-5.1239,-5.123,-5.121,-5.121,-5.1212,-5.1329,-5.1189,-5.1192,-5.1193,-5.142,-5.1426,-5.1431,0,0,0,0,0,0,-5.1344,-5.1348,-5.1368,-5.1349,-5.1349,-5.1292,-5.1308,-5.1295,-5.1299,-5.125,-5.1238,-5.1255,-5.1207,-5.1208,-5.1265,-5.1326,-5.1193,-5.1195,-5.1415,-5.1422,-5.1428,-5.1567,0,0,0,0,0,0,-5.1344,-5.1349,-5.1388,-5.135,-5.135,-5.1422,-5.1311,-5.1298,-5.1304,-5.1291,-5.1261,-5.1252,-5.1204,-5.1261,-5.1267,-5.1328,-5.1198,-5.1409,-5.1418,-5.1426,-5.1556,-5.1577,-5.1595,0,0,0,0,0,-5.1342,-5.1429,-5.1391,-5.1395,-5.1398,-5.1426,-5.1426,-5.1368,-5.131,-5.1348,-5.1316,-5.1253,-5.1319,-5.1268,-5.1274,-5.1336,-5.1405,-5.1416,-5.1425,-5.1548,-5.1573,-5.1595,0,0,0,0,0,0,-5.1477,-5.1423,-5.138,-5.1457,-5.1447,-5.1404,-5.1451,-5.1397,-5.1404,-5.1392,-5.132,-5.1314,-5.1381,-5.1364,-5.1309,-5.1434,-5.1351,-5.1363,-5.1442,-5.1466,-5.1485,-5.1488,-5.12,0,0,0,0,0,-5.1515,-5.1542,-5.1494,-5.1567,-5.1564,-5.1509,-5.1519,-5.1475,-5.1462,-5.1457,-5.1429,-5.1419,-5.1437,-5.1451,-5.1465,-5.1553,-5.1544,-5.1599,-5.1618,-5.1635,-5.1646,-5.169,-5.1713,-5.1465,-5.1464,-5.1464,0,0,-5.1596,-5.1569,-5.1591,-5.1593,-5.158,-5.161,-5.1506,-5.1542,-5.1563,-5.1463,-5.1514,-5.1493,-5.1477,-5.155,-5.1581,-5.1538,-5.1712,-5.1648,-5.1661,-5.1663,-5.1703,-5.1726,-5.1747,-5.1472,-5.147,-5.1469,0,0,-5.1756,-5.174,-5.1797,-5.1786,-5.1767,-5.1729,-5.1743,-5.1709,-5.1691,-5.1741,-5.1665,-5.169,-5.1723,-5.1714,-5.1714,-5.187,-5.1812,-5.1877,-5.1979,-5.2022,-5.2042,-5.2059,-5.2113,-5.2134,-5.1888,-5.1888,-5.1888,0,-5.1858,-5.1899,-5.1834,-5.1874,-5.1877,-5.1786,-5.1844,-5.1836,-5.1824,-5.1827,-5.178,-5.1818,-5.1801,-5.187,-5.1908,-5.1911,-5.1924,-5.1879,-5.2044,-5.206,-5.2075,-5.2126,-5.2147,-5.1896,-5.1895,-5.1894,-5.1894,0,-5.2025,-5.2054,-5.2103,-5.2091,-5.2099,-5.2149,-5.2091,-5.2107,-5.2062,-5.203,-5.2082,-5.2058,-5.2065,-5.2078,-5.2035,-5.214,-5.2114,-5.2057,-5.1972,-5.2108,-5.2155,-5.2174,-5.1907,-5.1905,-5.1902,-5.19,0,0,-5.227,-5.222,-5.2239,-5.2231,-5.2203,-5.2225,-5.2269,-5.2275,-5.229,-5.2284,-5.2319,-5.2348,-5.2294,-5.2294,-5.2249,-5.2288,-5.2411,-5.2225,-5.2224,-5.226,-5.2524,-5.2567,-5.2591,-5.2373,-5.2376,-5.2379,-5.2525,0,-5.2421,-5.2493,-5.2435,-5.2518,-5.2544,-5.2457,-5.2496,-5.2483,-5.2453,-5.2471,-5.2439,-5.246,-5.2388,-5.2387,-5.2421,-5.2389,-5.2463,-5.2378,-5.2404,-5.2406,-5.241,-5.2615,-5.2661,-5.28,-5.2543,-5.2546,-5.2548,0,-5.2608,-5.2608,-5.2693,-5.2657,-5.2666,-5.2702,-5.2701,-5.2719,-5.2702,-5.2678,-5.2678,-5.2622,-5.2663,-5.2581,-5.2636,-5.2579,-5.2586,-5.2572,-5.2576,-5.2576,-5.2485,-5.262,-5.2843,-5.2864,-5.2577,-5.2574,-5.2572,0,-5.2776,-5.2798,-5.2851,-5.2848,-5.2808,-5.2835,-5.282,-5.2798,-5.2805,-5.2805,-5.2808,-5.2814,-5.2817,-5.2822,-5.2769,-5.2714,-5.2831,-5.2744,-5.2812,-5.2813,-5.284,-5.2839,-5.3067,-5.2847,-5.2846,-5.2846,-5.2845,0,-5.2951,-5.3006,-5.2926,-5.2959,-5.3018,-5.2951,-5.3011,-5.2987,-5.2968,-5.2995,-5.2921,-5.2947,-5.2876,-5.2896,-5.2855,-5.2906,-5.2908,-5.289,-5.2878,-5.2896,-5.2898,-5.2899,-5.2888,-5.2851,-5.285,-5.2849,-5.2848,0,-5.3149,-5.3098,-5.3149,-5.3107,-5.3097,-5.3142,-5.3106,-5.3134,-5.3099,-5.3134,-5.3138,-5.3084,-5.3102,-5.305,-5.3062,-5.3034,-5.3108,-5.3081,-5.3113,-5.3105,-5.3174,-5.3168,-5.3411,-5.3439,-5.3202,-5.3204,-5.3206,0,-5.3263,-5.3303,-5.3264,-5.3276,-5.3264,-5.3284,-5.329,-5.3225,-5.3234,-5.3217,-5.3248,-5.326,-5.3266,-5.33,-5.3262,-5.327,-5.3242,-5.3326,-5.3243,-5.3259,-5.3242,-5.324,-5.3243,-5.3343,-5.3346,-5.3349,-5.3351,0,-5.3471,-5.3443,-5.3454,-5.3455,-5.3464,-5.3462,-5.3456,-5.347,-5.34,-5.3414,-5.3431,-5.3436,-5.3446,-5.3459,-5.3459,-5.3443,-5.3386,-5.3377,-5.3393,-5.3411,-5.3428,-5.3419,-5.3159,-5.3372,-5.337,-5.3368,-5.3367,-5.3366,-5.363,-5.3661,-5.3637,-5.3651,-5.3639,-5.3634,-5.3658,-5.3625,-5.3638,-5.364,-5.3602,-5.3627,-5.3608,-5.3601,-5.3591,-5.361,-5.3571,-5.3594,-5.36,-5.3607,-5.3618,-5.3426,-5.361,-5.3609,-5.3608,-5.3608,-5.3607,0,-5.3833,-5.3813,-5.3826,-5.3818,-5.3829,-5.3773,-5.3762,-5.3775,-5.3798,-5.3784,-5.3791,-5.3811,-5.3822,-5.3785,-5.3791,-5.3814,-5.3788,-5.3817,-5.3815,-5.3812,-5.3653,-5.3638,-5.3838,-5.3838,-5.3838,-5.3838,-5.3838,-5.3838,-5.394,-5.3988,-5.3958,-5.3999,-5.3979,-5.4002,-5.4,-5.3995,-5.3984,-5.4008,-5.4017,-5.3992,-5.3969,-5.3973,-5.3981,-5.397,-5.3975,-5.4014,-5.3994,-5.3846,-5.3823,-5.3802,-5.3787,-5.4016,-5.4017,-5.4152,-5.4153,-5.4154]}]]